Weather in Vashkovcy

Ukraine / Chernovtci District     48°24′20″N   27°07′36″E
temp.,
°C
wind,
m/s
gust,
m/s
humid.,
%
clouds,
%
prec.,
mm/h
press.,
hPa
HPBL,
m
1 march, mon
mon123:00+2wnw71296100 1.1 1025698
02:00+2nnw51097100 3.8 1025581
05:00+2nnw51097100 0.1 1026524
08:00+2n61097100 0.4 1028602
11:00+3n687898 0.1 1031853
14:00+4n568098 0.3 1032712
17:00+4nne257894 0.1 1032521
20:00+3nnw267997 0.2 1034233
2 march, tue
tue223:00+2nnw268095 0.0 1034225
02:00+2wnw248394 0.0 1035121
05:000wnw499032 0.0 1033213
08:00+1wnw5118919 0.0 1032377
11:00+6wnw6107058 0.0 1030529
14:00+9wnw7115929 0.0 1028806
17:00+9wnw7136029 0.0 1025788
20:00+6nw6167415 0.0 1027741
3 march, wed
wed323:00+5nw6157816 0.0 1028617
02:00+3nw512888 0.0 1029434
05:00+1nw38948 0.0 1030237
08:00+1nw389514 0.0 1031346
11:00+5nnw46582 0.0 1031688
14:00+8nw45411 0.0 10301069
17:00+7nw244925 0.0 1028268
20:00+3w227461 0.0 102823
4 march, thu
thu423:00+2sw228033 0.0 102722
02:00+1ssw338617 0.0 102549
05:00+1s34910 0.0 102271
08:00+2s36900 0.0 1020201
11:00+7wsw346211 0.0 1017367
14:00+10w464711 0.0 1015666
17:00+9w365438 0.0 1013240
20:00+6wsw236619 0.0 101325
5 march, fri
fri523:00+5wsw33715 0.0 101331
02:00+4sw227422 0.0 101222
05:00+3ssw237698 0.0 101130
08:00+4sw367299 0.0 1010126
11:00+9ssw585395 0.0 1009400
14:00+12wsw7124486 0.0 10071379
17:00+10w41056100 0.0 1008600
20:00+6nw4109194 0.1 1010545